Find Starlink 3109

NORAD ID: 49143 Int'l Des: 2021-082 Owner: SPXS Country: US Constellation: starlink operational
LEOCIRCULAR

Live Position

Loading 3D Globe...

About Starlink 3109

Description loading...

Upcoming Passes

Passes for default location (London). Set your location on the main map for personalized predictions.

Altitude History

Loading altitude history...

Two-Line Element Set

1 49143U 21082P 26122.04651331 .00001214 00000-0 11170-3 0 9991
2 49143 70.0007 140.8846 0003033 268.4489 91.6322 14.97535424255557
Epoch: May 2, 2026 • Age: 13 hours

Current Status

Altitude 577.4 km
Velocity 7.57 km/s
Sub-Earth Point -3.54°S, 68.9°E
Launch Date Sep 14, 2021
Age 4.6 years
Type internet

Technical Details

Classification Payload
Mass 297.00 kg
Dry Mass 275.00 kg
Total Mass 297.00 kg
Length 0.20 m
Diameter 2.80 m
Span 9.00 m
Shape Box + pan
Manufacturer SPXS
Bus Type Starlink
Phase Status In Orbit
Owner/State SPXS/US

Most Searched